Theta_e
335 335 336 337 336 334 334 335 333 334 332 331 333 333 332 332 332 331 330 329 328 327 329 329 329 329 330 330 330 331 330 330 332 331 330 331 329 323 317 312 310 308 307 308 310 310 307 307 307 307 307 307 306 306 305 305 305 305 305 305 305 305 305 305 308 312 312 313 315 316 317 318 319 319 318 318 317 318 318 318 317 316 315 313 312
333 334 334 335 335 335 334 334 334 334 333 332 333 334 333 333 333 332 331 330 328 328 328 329 329 329 329 330 330 330 330 330 331 331 330 331 330 328 322 315 312 309 308 308 310 312 309 308 308 307 308 307 306 306 305 305 305 305 305 305 305 305 305 305 308 312 312 314 316 317 318 319 319 319 318 318 317 318 318 317 316 315 314 312 310
333 333 333 333 333 335 335 334 335 334 334 334 334 333 332 332 332 331 331 330 328 328 328 329 329 329 329 329 330 330 330 330 330 330 330 331 331 329 324 318 315 310 308 307 308 311 310 310 310 307 308 307 307 306 305 305 305 305 305 305 305 305 305 305 307 311 313 315 317 318 319 319 319 319 318 318 317 318 317 316 315 314 312 311 309
333 333 333 332 331 332 334 335 335 334 334 335 335 334 332 332 331 330 331 330 329 328 329 329 329 328 328 328 329 329 330 330 330 331 330 330 330 329 326 321 317 312 309 307 307 309 308 310 312 309 307 308 307 306 306 305 305 305 305 305 305 305 305 305 308 312 314 317 318 319 320 319 319 319 318 317 318 318 316 316 315 313 312 310 308
334 332 331 331 331 331 332 334 335 334 335 335 335 335 333 332 331 331 331 330 330 329 329 330 329 328 327 328 328 329 330 330 330 330 330 330 330 330 329 325 321 315 311 308 307 308 307 309 313 312 308 307 307 306 306 306 305 305 305 305 305 304 304 304 307 313 316 318 319 320 320 319 319 319 318 318 318 317 316 315 314 313 311 309 307
334 332 331 331 332 332 331 332 334 334 335 335 335 335 334 333 332 331 331 330 330 330 330 330 328 327 326 327 328 329 330 330 330 330 330 330 329 329 329 328 326 321 315 311 308 307 307 307 311 311 308 307 307 306 306 306 305 305 305 305 304 304 304 304 308 315 318 318 319 319 320 319 319 318 318 318 317 316 316 315 314 312 310 308 306
332 333 333 332 332 332 330 331 333 333 334 334 335 335 335 333 332 332 331 330 330 330 330 330 328 327 326 325 327 329 330 330 329 330 329 329 329 329 328 329 329 327 324 318 313 309 307 306 307 308 308 307 307 306 306 306 305 305 305 304 304 304 304 304 311 317 319 319 319 320 319 319 319 318 318 318 317 316 315 314 313 312 309 307 305
329 332 334 333 331 330 329 330 332 332 334 334 334 335 334 332 332 331 331 331 331 329 329 329 328 327 326 325 325 328 330 329 329 329 328 328 328 329 329 328 328 329 328 326 323 318 312 308 306 307 308 308 306 307 306 306 305 305 305 305 304 304 304 307 315 319 319 319 319 320 319 319 318 318 318 317 317 315 315 313 312 311 308 306 304
320 328 331 332 332 332 331 331 330 332 334 333 333 333 332 331 333 331 330 330 330 330 329 329 328 327 327 326 325 327 329 329 329 328 328 327 328 328 329 328 328 328 328 328 328 326 320 314 309 307 307 308 307 307 306 306 306 305 304 304 304 304 305 311 318 318 318 320 319 320 319 319 318 318 318 317 316 315 313 313 311 309 306 304 303
316 325 328 330 332 332 334 333 331 331 332 333 333 333 331 330 333 334 332 331 330 330 330 329 328 327 327 326 326 327 328 328 328 328 328 327 327 328 328 328 327 327 327 327 327 328 326 321 316 311 307 307 308 307 307 306 306 305 304 303 304 304 306 317 322 319 319 320 319 320 319 319 318 318 318 316 315 314 312 311 310 307 305 303 302
313 319 321 328 332 331 333 334 333 332 331 332 332 332 332 331 332 334 333 332 332 331 331 330 328 327 327 326 326 327 327 328 328 327 327 327 326 327 327 327 327 327 327 327 326 327 327 324 320 315 310 307 308 307 306 306 306 306 304 303 304 304 309 322 325 320 320 320 319 320 319 318 318 318 317 316 315 313 311 310 308 305 304 302 301
311 313 314 321 328 330 333 334 334 334 331 331 331 330 332 332 332 332 332 332 332 333 333 331 329 327 326 325 327 328 328 328 327 327 327 327 327 326 327 327 327 327 327 327 327 326 327 326 322 317 313 308 307 308 306 306 307 306 304 304 305 304 311 324 324 319 320 320 320 320 319 318 319 318 317 315 314 312 310 309 306 304 302 301 301
310 311 312 316 321 325 330 332 333 333 332 333 331 331 331 331 331 331 331 331 332 333 333 332 330 328 327 326 328 329 328 328 327 327 327 327 327 326 326 326 327 327 327 327 328 326 326 327 325 323 320 315 311 311 310 309 307 307 305 304 305 304 312 324 324 320 320 320 320 320 318 318 319 318 316 314 313 311 309 307 305 303 301 301 300
310 311 311 313 315 318 322 327 330 331 331 332 331 332 331 331 331 330 331 332 333 333 332 331 330 329 327 327 328 329 328 328 328 328 327 327 327 326 325 326 326 327 327 327 328 326 326 327 327 326 325 322 319 316 314 312 308 307 306 303 304 304 312 324 324 321 321 320 320 320 318 319 319 317 315 314 312 310 309 306 304 302 301 300 300
312 314 314 314 314 314 316 321 324 324 325 327 328 330 331 332 331 330 331 332 333 333 331 331 330 329 328 328 329 329 328 328 328 328 327 327 327 326 325 325 326 326 327 327 328 327 326 326 327 327 325 324 325 322 317 314 310 308 307 303 304 305 311 322 324 321 322 320 320 320 318 320 320 318 316 314 313 310 309 306 304 302 301 300 299
313 316 318 318 319 317 316 319 322 322 323 323 323 324 326 329 332 331 331 331 333 334 333 331 331 329 329 328 328 328 328 329 328 328 327 327 327 326 326 326 326 326 326 327 328 328 327 326 326 327 326 324 326 326 323 320 315 311 307 304 304 305 310 319 321 321 322 320 320 320 318 320 320 319 317 316 314 312 309 306 304 302 300 300 299
315 315 317 318 320 320 319 320 321 321 323 323 322 320 318 321 328 331 331 332 332 333 333 332 330 329 329 328 328 328 328 328 329 329 328 328 327 327 327 326 326 326 326 326 327 327 327 326 326 327 327 325 325 327 327 326 322 313 306 304 304 304 310 317 319 322 323 320 321 320 318 320 321 320 319 318 316 313 310 308 304 302 301 300 299
314 314 315 316 317 318 319 320 319 319 321 323 325 324 319 315 318 324 329 333 334 333 333 332 330 329 328 328 328 328 328 328 329 330 329 329 328 327 327 327 327 327 326 327 326 326 327 327 327 326 326 326 325 324 325 325 322 313 305 304 304 303 309 316 317 321 324 321 320 320 318 320 322 321 321 319 318 315 312 309 306 303 302 300 299
314 314 315 315 316 316 316 318 318 319 319 321 324 325 324 319 314 314 319 326 331 333 332 331 329 330 329 328 327 327 328 328 328 328 329 330 329 329 328 327 328 327 327 327 325 324 326 326 326 326 326 326 324 321 321 320 318 313 307 305 304 303 309 313 312 317 324 323 321 320 318 320 322 322 322 320 319 316 313 310 307 304 302 300 299
314 315 315 315 316 316 316 317 318 318 318 319 321 323 324 323 320 317 316 319 323 327 329 328 328 329 329 328 327 326 327 327 328 328 328 329 330 330 329 328 328 328 327 327 325 324 326 326 325 324 325 326 325 322 321 321 317 312 307 305 304 304 308 310 309 316 324 324 321 320 318 319 322 322 322 321 319 317 314 311 307 304 301 300 299
314 315 315 315 315 315 316 317 317 318 319 320 320 321 322 322 323 323 321 321 323 324 325 326 327 330 330 328 326 326 326 326 327 328 328 328 329 330 330 329 328 328 327 326 325 325 326 326 324 323 324 326 326 324 321 319 316 311 307 305 304 305 308 310 310 317 325 325 321 320 319 319 321 322 322 321 319 317 314 311 307 303 300 299 298
310 311 312 313 314 315 316 316 317 317 318 319 319 319 319 318 320 324 323 322 325 326 326 327 329 331 330 328 327 326 326 326 326 328 328 328 329 329 329 329 329 328 327 326 326 326 326 326 325 323 323 324 324 323 319 317 316 313 307 304 304 306 309 311 311 317 326 327 322 320 319 319 321 321 321 321 319 317 314 311 307 303 300 299 298
306 307 309 310 310 312 313 314 316 317 317 318 318 317 317 315 315 321 324 324 324 326 326 328 331 332 330 328 328 328 327 326 326 327 328 328 329 329 328 328 329 329 328 327 326 326 326 326 326 324 323 323 323 322 319 317 318 318 312 305 304 306 308 311 312 316 326 329 323 320 319 319 320 321 321 320 319 318 315 311 307 303 301 299 298
308 308 309 309 307 306 307 310 312 315 316 317 318 318 318 318 316 318 322 325 325 324 325 327 330 331 331 329 328 329 328 327 326 327 329 329 329 329 328 327 328 328 327 327 327 327 327 326 326 325 324 323 324 322 320 320 323 324 319 310 304 306 309 312 313 318 327 329 324 320 319 319 320 320 321 320 319 318 316 312 307 303 300 298 297
309 307 307 306 305 304 304 304 307 311 314 316 317 318 319 319 320 319 320 322 325 325 324 326 328 329 329 329 328 328 329 328 326 326 327 329 330 329 329 328 327 327 326 327 328 327 326 326 326 326 324 325 325 324 324 325 326 326 324 317 309 309 312 314 317 321 326 327 324 321 319 319 320 320 321 320 318 318 317 313 308 303 300 298 297
306 305 305 304 304 304 304 303 303 305 309 312 313 315 317 318 319 319 319 319 322 325 325 325 327 327 327 328 329 329 328 327 326 325 325 326 327 328 329 329 328 328 326 326 327 327 326 325 326 326 325 325 326 326 326 327 326 326 326 322 316 314 315 317 321 323 324 326 325 321 319 319 320 321 321 321 318 318 318 316 311 305 301 299 297
305 305 304 304 304 304 304 303 303 302 304 307 310 311 313 316 317 318 319 318 319 322 324 325 325 326 327 327 328 328 327 327 325 323 323 324 325 326 328 329 329 328 327 325 326 326 325 324 325 325 325 325 326 327 328 327 325 325 326 324 319 318 319 320 322 324 325 327 325 321 319 319 320 321 321 320 319 318 320 319 315 308 303 300 297
304 304 304 304 304 304 303 303 303 302 302 304 308 310 310 312 315 317 318 318 318 319 321 324 325 325 326 326 326 327 326 325 325 323 322 323 325 325 325 328 329 328 328 326 325 326 325 324 324 324 324 326 327 327 327 326 325 325 325 324 321 321 324 323 322 325 328 327 323 320 319 320 321 321 320 320 319 319 320 320 318 311 304 300 298
304 304 304 304 303 303 302 302 302 302 301 302 305 309 310 311 314 317 317 317 319 319 319 321 323 325 325 325 326 327 326 324 322 321 322 325 326 324 324 326 327 328 328 327 325 325 325 324 324 323 324 326 327 327 326 324 325 325 324 324 324 325 325 323 323 326 329 326 322 319 319 320 321 321 320 319 320 319 320 320 319 312 305 301 298
303 303 303 303 303 302 303 303 303 302 302 303 305 307 311 313 314 316 318 318 319 320 319 320 321 323 325 326 326 327 327 325 324 322 322 324 324 322 323 325 326 327 328 328 327 325 325 324 323 323 324 326 327 327 326 325 324 324 325 326 325 325 325 323 325 328 329 325 321 319 320 321 321 321 320 320 320 320 320 320 319 313 306 301 298
303 303 303 303 302 304 305 306 306 306 305 305 307 307 309 312 313 314 315 317 318 319 320 320 320 320 321 324 325 326 327 326 326 326 324 322 319 318 319 322 324 326 327 328 328 327 325 324 324 323 323 325 326 326 326 326 324 323 326 327 325 323 324 324 327 328 327 323 320 320 320 321 321 321 320 320 321 321 320 320 319 313 306 301 298
303 303 303 303 303 305 307 308 308 308 308 307 307 307 308 311 313 314 314 316 318 318 319 319 320 321 321 321 322 324 325 326 326 327 327 324 320 317 317 317 320 323 325 326 327 327 327 325 324 324 322 324 325 324 323 324 324 324 327 327 325 324 324 325 327 327 325 322 320 320 320 320 320 320 321 321 321 321 320 320 318 312 305 301 297
303 303 303 303 304 305 306 308 308 308 308 308 308 308 309 310 312 314 314 315 317 318 318 319 319 320 321 322 321 320 322 323 325 326 328 327 325 321 319 317 316 320 323 324 325 326 327 326 325 324 323 323 324 324 323 323 324 325 327 328 326 325 325 325 325 325 323 321 320 320 320 320 319 320 320 321 321 321 320 319 317 311 305 300 297
305 305 304 304 304 305 305 307 308 308 308 308 308 309 309 310 311 312 313 314 316 317 318 318 319 319 320 321 322 321 320 321 324 325 326 326 325 322 319 315 314 316 319 322 324 326 327 327 327 326 324 324 323 323 323 322 322 324 326 328 327 326 325 324 324 324 322 320 320 320 319 318 318 319 320 321 321 321 320 318 316 311 304 299 296
306 306 305 305 305 305 306 306 307 307 308 308 308 308 308 309 310 311 311 313 314 315 317 317 318 319 319 319 320 322 322 322 322 322 323 324 325 325 322 318 316 316 316 319 324 326 326 326 327 326 325 324 323 323 322 320 320 323 326 327 327 326 325 325 325 324 322 321 320 320 318 317 317 318 320 321 321 320 319 318 316 310 302 298 296
306 306 305 305 305 305 305 306 306 306 307 307 307 307 308 308 309 310 310 311 312 314 316 317 318 318 319 319 320 321 322 322 321 319 321 324 325 327 327 325 323 322 318 317 321 324 326 326 327 327 325 325 324 323 321 319 319 323 326 327 326 326 325 325 325 324 322 320 320 319 318 316 316 317 320 321 320 319 318 317 315 309 302 297 296
306 305 305 305 305 305 305 305 306 306 306 307 307 307 307 307 308 309 310 310 311 312 313 315 317 317 318 319 319 320 320 322 322 320 320 322 324 326 326 326 326 327 324 320 320 323 326 326 327 327 325 324 324 321 319 319 320 323 324 324 325 326 325 325 325 324 322 320 319 317 316 315 315 317 320 320 319 318 317 316 313 308 301 297 295
305 305 305 305 305 305 305 305 305 306 306 306 307 307 307 307 308 308 309 310 310 311 312 313 315 316 317 318 319 320 320 321 322 322 322 322 323 325 325 326 328 329 328 325 323 326 328 327 327 327 325 324 323 319 317 319 321 323 323 321 321 321 323 325 326 324 321 320 319 317 315 314 315 317 320 319 318 317 317 315 313 307 301 297 295
305 305 304 305 305 305 305 305 305 305 305 306 306 306 307 307 307 308 308 309 309 310 311 311 313 315 316 317 318 319 320 321 321 322 323 323 323 324 325 326 327 328 329 328 327 327 328 327 327 327 325 323 322 319 316 317 320 322 323 321 319 319 322 325 326 324 322 319 316 314 314 313 314 316 318 318 317 317 316 315 312 306 300 297 294
304 304 304 304 304 304 304 304 305 305 305 305 305 306 306 307 307 307 308 308 309 309 310 310 311 312 314 316 317 318 319 320 321 321 322 323 323 323 324 326 327 328 328 329 329 328 327 327 327 327 325 323 322 320 316 315 316 319 321 322 321 322 323 324 324 323 322 320 317 314 314 315 315 316 317 317 317 316 315 314 311 305 300 296 294
304 304 304 304 304 304 304 304 304 304 304 305 305 305 306 306 306 307 307 307 308 308 309 310 310 311 313 315 316 317 318 319 320 321 321 322 323 323 323 325 326 327 328 329 330 329 327 327 327 326 325 322 320 318 315 315 318 320 321 321 321 321 322 321 320 320 320 319 318 317 317 317 316 316 317 318 316 315 315 314 310 305 299 295 294
303 303 304 304 304 304 304 304 303 304 304 304 304 304 305 305 305 306 306 307 307 308 308 309 310 310 312 314 315 316 317 317 318 320 320 321 323 322 322 323 325 326 326 328 330 330 327 328 327 326 324 322 319 317 317 319 321 321 320 320 320 320 319 318 316 316 317 318 318 317 317 317 316 315 316 316 315 314 314 313 309 303 297 294 294
303 303 303 303 303 303 303 303 303 303 303 303 303 303 303 303 304 304 304 305 305 306 307 308 309 310 310 312 314 315 316 317 317 318 319 319 321 321 322 322 323 325 326 327 329 330 328 328 328 326 324 322 318 317 319 321 321 321 321 321 321 320 320 319 318 318 319 320 319 318 317 316 315 315 314 314 314 314 313 313 310 302 295 294 294
302 301 302 302 302 302 302 302 302 302 302 303 302 302 302 302 302 302 303 303 303 304 305 306 307 309 310 310 312 315 316 317 317 317 318 318 319 320 321 321 321 323 325 327 329 330 328 328 328 326 324 321 318 318 321 323 323 323 322 320 321 322 322 322 321 321 321 320 319 318 317 316 315 314 313 312 313 315 313 313 311 301 294 294 293
300 300 300 300 300 301 301 301 301 301 302 302 302 302 301 301 301 301 301 302 302 302 303 303 305 306 308 309 311 313 315 317 317 318 318 319 319 318 319 320 321 321 321 323 327 328 328 328 328 326 324 321 320 321 323 324 325 324 322 320 322 323 323 321 320 322 321 319 318 315 314 315 314 313 312 310 309 312 311 310 307 299 294 293 293
299 299 299 299 299 299 299 300 300 300 301 301 301 301 301 300 300 300 300 300 301 301 301 302 303 304 305 307 309 311 313 316 317 318 318 319 319 319 318 318 319 319 318 319 324 327 328 328 328 326 324 323 323 324 325 325 325 325 324 323 323 322 321 320 319 320 320 318 316 313 312 314 313 310 310 306 304 306 307 306 303 297 293 293 292
298 298 298 298 298 298 298 298 299 299 299 299 299 299 299 299 299 299 300 300 300 300 300 300 301 302 303 304 307 309 312 314 316 317 318 319 319 320 319 317 317 318 317 316 321 325 325 327 329 327 324 325 326 325 325 325 326 326 325 325 324 323 322 320 317 318 317 315 315 313 311 313 312 310 308 304 300 302 305 304 300 295 292 292 292
298 298 298 298 297 297 297 298 298 298 298 298 298 298 298 298 298 298 298 299 298 299 299 299 300 301 301 302 304 306 309 312 315 317 318 319 319 320 321 319 317 317 316 314 317 320 321 324 328 327 325 325 325 325 326 326 326 325 324 323 322 322 322 319 316 315 314 313 313 313 311 311 311 310 307 302 298 300 302 302 298 294 292 292 292
298 298 297 297 297 297 297 297 297 297 297 297 297 298 297 297 297 297 297 298 298 298 298 299 299 300 300 301 302 304 306 310 314 316 317 319 319 320 321 321 320 320 318 316 315 316 318 323 327 326 325 325 325 325 326 326 325 325 324 322 322 322 321 319 317 316 315 313 313 312 310 309 309 308 304 299 298 299 299 299 297 293 292 292 292
298 297 297 297 297 297 297 297 297 296 297 297 297 297 297 296 297 297 297 297 297 298 298 298 299 299 300 300 301 302 304 308 312 316 317 318 319 319 320 321 321 321 321 321 319 316 316 322 327 326 325 325 325 325 325 326 326 326 325 324 323 322 321 320 319 316 314 313 313 311 308 308 308 305 300 297 297 297 297 297 296 293 293 292 292
297 297 296 296 296 296 296 296 296 295 296 296 296 296 296 296 296 296 297 297 297 297 298 298 299 299 300 300 300 301 303 305 309 314 317 318 319 319 319 320 321 322 322 322 321 318 316 320 326 326 325 325 325 325 326 326 326 325 325 324 324 324 322 320 318 316 314 313 313 311 309 308 307 303 299 298 298 297 296 295 295 294 294 292 291
Wind_Speed
13 9 8 9 10 10 12 17 18 17 15 14 15 13 13 14 12 12 11 9 9 9 9 9 10 12 10 10 11 10 10 9 8 8 8 8 13 14 13 13 12 13 14 15 14 14 14 15 14 12 11 10 9 7 6 6 5 4 3 2 1 0 1 2 3 3 3 4 6 7 7 7 8 9 10 12 13 15 16 16 16 16 17 18 19
13 11 12 11 10 8 9 13 17 17 16 15 15 12 12 13 12 12 11 9 9 10 10 9 10 10 10 11 12 11 11 11 9 9 8 7 10 15 14 14 14 14 14 16 16 15 15 15 15 14 12 12 11 8 7 6 6 5 3 2 2 1 0 1 2 2 3 4 6 6 6 6 7 9 10 12 14 15 15 15 15 16 17 18 19
16 16 14 13 12 11 10 10 13 14 13 12 13 12 12 13 12 10 9 9 9 10 10 9 10 10 11 11 11 12 12 12 11 10 9 8 10 15 16 15 15 15 15 17 17 17 16 16 15 15 14 14 12 10 8 8 7 6 4 3 3 2 0 1 1 1 3 5 5 5 5 6 7 8 10 12 14 15 14 14 15 16 18 19 19
16 17 16 14 14 14 13 12 13 13 12 11 11 12 13 13 12 8 9 10 10 10 10 10 10 10 11 12 12 12 12 13 12 11 11 10 9 12 15 15 15 16 16 18 18 18 18 17 16 15 15 15 14 12 10 9 8 7 6 5 5 2 1 1 2 0 3 4 4 4 4 6 7 8 10 12 13 14 13 14 15 16 18 19 19
13 16 17 15 14 16 15 14 14 13 12 12 12 13 13 12 12 12 12 12 11 11 11 11 11 10 11 12 13 13 12 13 13 12 12 11 10 9 11 14 15 16 16 17 18 18 19 19 18 17 16 16 15 14 12 11 10 8 7 7 6 3 2 3 2 0 3 3 3 3 4 5 7 8 10 12 12 12 12 13 15 16 18 19 19
13 14 16 16 15 16 16 15 16 15 14 13 13 12 12 12 12 13 13 12 11 11 12 12 12 11 12 12 12 13 13 13 13 13 13 12 11 10 9 9 12 15 16 17 18 18 19 21 20 18 17 17 17 16 14 12 11 10 9 9 7 4 4 4 3 2 3 3 3 3 3 5 6 8 10 11 11 11 12 13 15 16 18 19 19
14 13 14 17 18 17 16 16 18 19 16 15 15 13 13 13 12 12 11 11 11 11 12 12 12 12 12 13 13 13 14 14 13 14 14 13 12 12 11 10 9 12 14 15 16 16 18 22 22 20 19 19 19 18 16 14 12 12 11 10 7 6 6 5 3 3 4 3 3 2 2 4 6 8 10 11 10 11 12 13 15 17 18 19 19
14 15 15 17 19 19 18 17 18 19 16 16 18 15 14 14 13 13 12 11 11 11 11 11 12 13 12 13 14 13 14 14 15 15 15 14 14 13 12 12 11 10 10 11 14 15 16 20 22 21 20 20 20 19 18 15 14 13 12 10 9 8 7 6 4 4 4 4 3 2 1 3 6 8 10 10 10 11 12 13 15 17 18 18 19
13 14 17 18 20 19 18 19 21 20 17 19 21 19 17 15 13 15 15 13 13 12 13 12 11 12 13 14 14 14 15 14 15 16 16 16 15 14 14 13 13 13 12 11 11 14 16 18 20 22 22 21 21 20 19 17 15 15 14 12 10 10 8 6 5 5 4 4 4 2 0 2 5 8 9 9 9 11 12 14 15 17 18 18 18
14 13 17 19 20 19 17 20 22 23 22 20 20 20 19 17 15 15 16 15 15 14 14 13 12 12 12 14 15 15 15 15 15 16 16 17 17 15 14 14 14 14 14 14 13 13 17 19 20 22 23 23 23 23 21 19 17 16 15 14 12 12 8 6 7 6 5 6 5 3 1 2 5 7 8 8 9 11 12 14 16 17 17 18 18
14 16 16 16 18 21 21 19 18 23 25 21 20 21 20 20 18 16 16 16 16 16 16 14 13 13 12 13 15 15 15 16 16 17 18 18 18 17 16 15 15 15 15 16 16 15 16 19 20 22 25 26 25 26 24 21 18 15 16 16 15 13 9 7 9 7 6 7 6 3 2 3 5 7 7 8 9 11 12 14 15 16 17 17 17
13 15 17 17 17 19 21 19 17 20 24 25 26 26 22 21 21 20 20 18 17 17 17 15 13 13 13 12 14 15 15 17 17 17 18 18 18 19 18 16 16 17 16 16 17 16 16 18 20 20 23 25 25 25 25 23 20 15 17 19 16 14 10 9 11 9 8 9 7 4 2 3 5 6 7 7 9 11 12 14 15 15 16 16 16
13 13 15 17 17 17 19 20 20 20 21 22 25 26 26 25 25 25 24 22 21 19 17 15 14 15 15 13 14 15 15 17 17 17 18 19 19 19 19 18 17 18 18 18 18 17 17 18 18 17 18 21 22 23 24 25 23 18 18 19 17 16 11 10 13 10 9 10 7 5 2 3 4 6 6 7 9 11 12 13 14 15 15 15 15
13 14 14 15 15 17 18 19 20 22 23 23 24 25 27 28 28 28 28 26 24 24 21 17 17 18 16 13 14 16 16 17 18 18 19 20 20 20 20 20 19 18 18 18 19 18 18 18 19 18 18 18 20 23 24 25 25 21 19 19 19 17 13 12 13 11 10 10 8 6 3 2 4 5 6 7 9 10 12 13 14 14 15 15 14
11 11 11 13 14 15 16 15 16 20 22 23 25 27 29 30 30 30 30 27 25 25 25 24 22 18 16 15 15 15 16 18 20 21 21 21 20 20 21 21 20 19 18 18 19 19 18 18 19 20 20 18 18 21 22 24 24 21 20 21 21 19 15 14 15 12 11 11 9 7 5 2 3 5 6 7 9 10 11 13 13 14 14 14 13
10 9 8 9 9 12 13 12 12 14 15 16 19 23 28 30 31 32 33 31 29 27 27 29 27 20 17 17 16 16 17 18 20 22 22 22 22 22 21 21 21 20 19 19 18 19 19 19 19 20 21 21 18 17 18 19 20 19 20 23 22 20 18 17 17 14 12 13 11 8 6 3 2 3 5 7 9 10 11 13 13 14 14 14 13
10 10 9 9 8 9 10 11 12 13 13 14 15 18 24 27 29 32 34 34 33 32 31 31 31 26 20 18 16 16 17 16 17 20 20 22 23 23 23 21 21 20 20 20 19 19 19 19 20 20 21 22 22 20 17 16 20 19 19 24 24 22 20 19 18 16 13 14 12 9 7 4 1 2 5 7 9 10 12 13 13 14 14 14 13
9 9 10 11 11 10 10 11 12 13 13 14 14 16 20 23 26 29 32 34 32 32 32 31 31 30 27 24 20 19 17 16 15 17 18 21 21 22 23 23 22 20 20 20 19 19 18 18 20 21 21 22 24 25 23 22 24 23 19 22 25 23 22 21 20 17 15 14 13 11 9 5 2 2 4 6 8 10 12 13 14 15 15 15 14
7 8 9 10 11 12 12 12 12 14 15 16 16 15 17 19 23 26 30 33 32 32 31 29 28 32 34 31 27 27 22 18 17 16 15 18 20 20 22 23 23 22 21 20 19 19 19 19 19 21 21 23 25 27 27 26 28 28 23 21 24 24 23 23 21 18 17 15 14 12 10 7 3 2 4 6 8 10 11 13 14 15 16 16 16
7 8 8 9 10 11 12 12 13 14 15 17 17 17 17 18 20 22 25 28 31 33 34 32 30 32 37 37 32 31 28 22 20 18 16 14 17 20 21 22 24 23 22 21 20 19 20 21 20 20 21 23 24 25 26 26 27 30 26 23 25 25 25 24 21 19 18 16 15 13 11 8 5 2 3 6 8 9 11 12 14 14 15 16 16
7 8 8 8 10 10 11 12 14 14 15 16 17 18 19 20 20 20 22 24 27 30 32 33 33 32 36 38 35 34 31 26 23 21 21 19 17 17 20 21 23 24 24 23 22 20 20 22 21 20 20 21 22 23 24 24 25 27 26 25 27 27 26 25 21 19 20 18 16 14 12 10 6 3 3 5 7 9 11 12 12 13 13 14 14
7 8 8 9 9 10 11 12 13 14 15 17 18 20 21 23 23 20 21 24 26 28 31 33 33 33 36 37 35 34 33 29 26 24 23 22 22 20 18 19 20 22 23 24 24 23 21 22 21 20 19 20 21 22 23 23 23 25 26 27 29 28 27 25 22 20 21 20 17 15 13 11 7 4 4 5 6 8 10 10 11 11 12 13 13
11 10 10 11 10 11 13 13 13 14 15 17 19 20 22 25 26 23 22 24 27 30 31 33 34 34 38 39 36 34 33 32 30 26 24 24 24 24 21 19 18 19 19 21 23 23 22 22 22 20 19 19 20 20 20 21 23 25 27 28 29 29 27 25 22 21 23 22 18 16 15 12 9 5 4 4 6 7 9 10 10 11 12 12 12
10 10 10 12 13 14 15 15 15 14 14 16 18 19 20 23 25 26 26 24 26 30 32 32 33 35 39 41 38 36 34 33 32 29 25 24 23 25 24 21 20 19 18 21 23 22 22 23 22 20 19 19 19 19 19 20 23 25 26 27 28 28 26 25 24 23 24 23 20 17 16 13 10 6 4 4 5 7 8 9 10 10 11 11 12
10 12 13 15 17 17 18 17 17 16 16 17 18 18 19 20 22 25 28 28 26 30 32 31 31 33 37 41 42 41 39 36 35 35 30 26 24 25 26 24 23 21 17 20 21 19 21 23 22 21 20 19 19 19 19 22 26 26 25 25 26 27 26 26 25 24 24 24 20 17 16 14 10 6 4 4 5 7 8 9 10 10 10 10 10
14 16 18 20 20 21 21 21 20 19 20 20 21 19 19 20 22 24 28 30 30 30 31 32 32 33 34 38 42 45 44 41 41 41 38 35 33 30 27 26 25 24 20 19 20 17 18 22 23 22 20 21 21 19 20 24 27 27 26 24 25 26 27 27 26 25 24 23 20 18 16 14 10 6 5 5 6 7 9 10 10 10 10 10 10
17 19 21 23 24 25 26 26 24 22 22 22 22 22 21 21 22 24 25 28 32 33 31 31 34 35 34 35 38 43 46 45 45 46 42 40 40 37 31 26 23 24 24 20 20 19 18 19 21 23 21 20 21 21 23 27 27 27 28 26 25 26 27 28 28 26 25 23 20 18 17 14 10 7 6 6 7 8 9 11 12 11 10 10 9
19 21 23 25 27 28 29 30 28 26 24 23 22 23 24 24 22 23 26 27 30 34 34 33 34 36 36 37 38 40 44 44 44 46 45 43 42 41 38 33 26 24 24 22 21 19 18 18 20 23 22 21 24 25 27 29 26 25 27 27 25 26 27 29 28 27 26 24 20 19 17 14 10 8 7 6 7 9 10 11 12 12 11 10 10
22 23 25 26 28 30 31 30 29 27 25 24 23 22 23 24 22 21 24 26 26 29 33 35 34 33 34 37 39 39 41 42 43 45 45 46 45 43 42 41 36 29 26 24 23 20 19 20 21 22 21 22 27 28 29 30 26 23 27 28 26 26 28 28 28 28 27 23 20 20 18 14 11 9 8 7 9 11 12 12 13 12 11 11 10
24 25 26 28 29 29 29 29 26 25 25 24 23 22 21 22 23 23 23 23 25 26 28 32 35 35 34 34 35 37 38 39 42 44 45 47 48 46 44 43 42 38 32 27 23 22 21 22 23 24 23 22 23 24 26 29 28 26 27 28 26 26 27 28 28 29 26 23 22 20 18 15 12 9 9 8 10 12 13 13 14 13 12 11 11
26 27 28 29 28 25 24 24 23 22 23 23 22 22 22 21 23 26 26 23 25 27 26 28 31 35 37 37 36 35 36 38 40 42 45 47 48 47 45 45 45 43 39 34 30 27 23 22 25 27 26 26 25 22 23 26 27 29 28 27 26 25 27 29 30 29 26 24 23 21 18 16 13 11 10 10 12 14 14 14 15 14 13 12 11
27 28 28 27 25 22 21 22 21 21 21 22 23 23 22 21 22 25 26 24 25 27 27 27 27 30 34 38 40 38 35 36 38 40 42 45 48 48 48 48 47 44 42 42 41 37 29 23 25 29 28 28 28 26 27 27 26 28 30 28 26 26 28 30 30 29 26 25 24 22 19 17 15 13 11 12 14 15 15 15 15 14 13 12 12
27 27 27 26 24 22 22 21 21 22 21 22 22 22 22 22 22 24 25 25 26 27 28 28 28 28 29 32 38 41 39 37 37 38 39 40 44 48 49 50 49 46 44 45 45 43 36 26 24 29 28 30 31 25 24 27 26 29 32 30 27 28 29 31 30 29 27 27 25 23 21 19 16 14 12 13 15 16 16 16 15 14 13 12 12
24 23 24 25 24 23 22 22 22 22 22 22 22 22 23 23 24 24 25 26 26 27 28 29 29 30 30 30 32 35 39 40 38 37 37 39 42 46 49 51 51 49 47 45 43 42 39 29 22 26 28 33 33 25 22 26 28 33 36 32 29 30 31 31 30 29 29 28 27 24 22 20 18 15 13 14 17 18 17 16 15 14 13 12 13
21 21 22 23 23 23 22 23 23 23 23 23 23 24 24 24 25 25 26 27 27 27 28 29 29 30 31 32 31 31 34 39 41 39 37 40 43 44 46 49 51 51 49 47 44 43 41 33 23 24 31 35 33 27 24 23 26 34 36 32 32 33 34 33 31 30 30 29 27 25 23 21 19 17 15 16 18 20 18 16 15 14 13 13 13
21 21 22 21 22 23 23 24 24 24 24 23 24 25 25 26 26 26 27 27 28 28 28 29 30 30 31 32 32 31 32 36 43 45 40 38 40 41 40 43 47 49 48 49 48 45 43 38 28 24 31 33 27 25 27 23 25 33 34 31 33 35 35 34 32 30 30 29 28 26 24 23 21 19 17 17 19 20 19 16 15 14 13 13 13
21 21 21 21 22 23 23 24 24 24 24 24 25 26 26 27 27 27 27 27 28 29 29 30 30 31 32 32 31 31 32 35 40 45 45 41 40 42 43 44 44 44 45 49 51 47 43 42 35 27 29 29 23 24 30 31 32 35 34 32 34 35 36 36 34 31 31 31 29 28 26 25 23 21 19 19 20 21 19 17 15 15 14 14 14
21 21 21 22 22 23 23 24 25 26 25 25 26 26 27 27 28 29 29 29 29 30 30 31 31 32 33 33 32 32 33 36 36 39 43 43 42 43 45 46 45 42 42 46 50 48 45 44 39 31 29 27 25 28 31 34 37 38 37 34 33 34 37 37 34 33 34 33 32 30 29 27 25 22 20 20 21 21 19 17 16 15 14 14 14
21 22 22 23 23 24 24 25 26 26 26 26 26 27 27 27 28 30 31 31 31 31 32 33 33 33 34 34 34 34 34 36 36 37 39 42 44 44 44 46 48 47 44 43 46 49 49 47 40 36 35 29 27 31 31 32 37 39 40 38 35 36 37 36 34 34 35 34 32 31 29 27 25 23 21 21 22 22 19 18 17 16 15 15 14
22 22 23 24 24 24 24 25 26 26 26 27 27 27 27 27 28 30 31 32 32 33 33 34 34 35 35 35 36 36 36 37 37 37 38 39 43 45 44 44 47 49 45 40 41 47 51 50 42 39 39 33 31 32 31 32 36 38 39 41 40 39 38 35 34 34 34 34 33 32 30 29 27 25 24 23 23 22 20 19 19 17 14 14 14
22 23 23 24 25 25 26 26 26 26 27 28 28 27 28 27 27 28 29 31 32 33 34 34 35 35 35 36 37 38 39 39 38 39 39 38 41 44 45 44 46 50 47 39 38 45 51 52 44 39 41 38 35 37 37 38 40 40 40 40 40 39 38 37 36 36 35 34 33 33 32 31 29 27 25 25 24 22 20 21 20 16 14 14 14
22 23 24 25 26 26 27 27 27 27 28 28 28 28 30 31 30 29 29 29 30 32 33 34 35 35 34 35 37 39 41 41 41 42 43 42 42 43 45 45 43 49 51 44 42 47 51 51 45 41 44 42 38 40 42 40 41 40 40 40 39 38 38 37 37 36 35 35 34 34 34 32 30 28 26 26 25 23 22 23 20 14 12 13 13
23 23 24 25 25 26 27 27 28 27 27 28 28 29 31 34 35 34 32 30 30 31 32 33 34 35 35 35 35 37 40 42 43 44 45 46 46 45 46 47 44 45 47 46 46 49 51 50 45 41 44 42 39 43 43 40 39 40 40 41 40 40 41 39 38 37 36 37 36 35 35 33 31 29 27 26 26 24 23 24 19 11 11 13 13
23 24 24 25 25 26 27 28 28 29 29 28 30 33 33 34 36 38 37 35 32 31 33 34 33 34 35 35 35 35 37 41 42 43 44 46 49 49 48 48 48 46 45 44 45 48 51 51 47 43 43 42 44 48 46 40 39 39 40 42 41 41 41 41 40 39 37 37 37 36 36 34 32 30 27 26 27 26 25 24 18 13 12 13 13
23 24 25 25 26 26 27 28 29 30 30 30 32 35 37 37 37 39 42 42 38 36 35 35 35 35 35 35 35 35 36 37 40 41 41 42 45 49 50 50 50 50 49 46 45 47 49 50 48 46 47 46 48 50 46 40 40 40 42 43 41 39 40 40 39 39 38 38 37 36 36 35 32 30 26 22 24 26 26 23 18 15 14 14 13
23 23 24 25 26 26 27 28 28 30 30 30 32 34 36 39 39 40 42 43 41 40 39 37 37 37 36 36 36 36 35 35 36 39 39 38 39 42 47 51 52 53 53 50 48 46 46 49 49 47 48 49 49 48 43 39 40 41 40 40 38 38 40 39 39 40 38 37 35 35 35 34 30 27 23 19 20 26 28 23 18 15 15 14 13
22 22 23 25 25 26 26 27 28 30 29 29 31 34 36 38 39 41 45 45 43 41 40 39 40 39 39 38 38 38 37 36 36 37 37 38 37 37 41 47 52 54 55 54 52 48 46 49 49 44 44 48 49 44 39 38 40 39 36 36 36 37 39 39 39 39 37 36 35 33 32 30 27 24 20 18 20 27 29 23 17 15 15 14 13
22 23 24 25 26 26 27 28 29 31 31 30 31 34 35 37 37 39 43 44 44 43 41 40 41 41 41 41 40 40 41 42 41 37 36 38 37 36 39 42 45 49 53 55 55 52 48 48 49 45 40 45 47 40 35 36 38 37 36 37 38 37 38 38 38 37 36 35 35 32 28 26 25 21 17 18 22 27 28 22 16 14 14 14 13
23 25 26 26 25 26 28 28 29 32 32 31 31 33 35 36 36 38 38 37 38 40 41 40 40 41 42 43 42 40 43 47 46 39 35 37 38 38 39 39 39 40 43 46 50 52 47 44 48 49 45 45 47 40 35 35 36 35 37 40 40 38 37 38 37 37 36 35 34 31 26 24 24 18 15 19 24 25 25 23 17 13 13 14 13
24 26 26 26 26 27 28 29 30 33 34 32 32 34 35 36 38 40 40 38 38 39 39 40 40 41 43 44 44 43 42 46 48 44 37 35 38 40 40 39 39 37 37 39 44 48 47 42 44 47 47 47 46 42 38 36 33 32 34 36 36 35 36 38 37 37 37 35 34 30 27 25 23 17 17 20 22 19 19 22 19 13 12 13 12
25 26 25 26 28 28 28 29 30 33 35 35 35 36 37 38 38 40 40 41 43 42 39 39 39 40 41 43 45 47 46 45 48 47 42 36 37 40 40 40 39 38 38 40 41 44 46 45 43 44 46 46 45 43 40 36 31 30 32 34 33 32 34 37 37 36 36 35 33 30 28 27 25 19 20 20 18 14 15 19 19 15 11 11 11
Wind_Direction
219 200 198 216 216 208 199 196 191 190 195 191 198 202 192 195 192 186 193 199 207 212 214 218 206 198 200 211 217 217 218 215 211 218 208 228 263 265 256 250 244 240 233 226 223 220 220 223 225 224 226 230 229 223 213 212 214 211 194 183 196 146 84 68 56 41 53 68 74 76 74 71 64 53 42 34 29 25 22 21 21 19 16 14 12
216 210 207 212 209 200 208 203 190 188 195 196 201 205 199 200 200 191 191 202 211 218 219 217 218 216 211 210 218 220 217 219 214 217 214 212 253 265 254 246 245 241 236 231 224 220 218 221 227 225 227 231 230 227 218 218 216 216 212 199 230 252 33 41 43 30 60 76 78 80 77 70 59 47 36 30 26 21 20 20 18 16 14 13 12
216 216 218 219 209 198 208 212 200 195 197 204 205 206 210 209 206 194 190 207 216 222 227 221 220 222 220 215 217 220 217 220 218 216 217 207 232 260 259 247 244 241 236 233 228 224 218 217 226 226 226 229 231 227 220 224 221 216 217 214 233 247 343 349 314 2 80 83 87 88 79 67 53 39 30 26 22 19 19 19 16 14 12 12 12
219 220 228 230 219 209 203 203 214 212 201 211 215 207 214 217 207 201 205 212 218 225 230 228 225 224 225 221 217 219 217 219 219 216 217 212 218 253 267 259 250 244 240 238 232 228 222 216 221 225 226 228 228 227 221 220 222 218 215 219 227 233 248 238 255 309 91 93 99 97 79 61 45 32 25 22 19 18 19 18 15 12 11 13 14
226 226 230 230 222 217 210 202 211 219 212 213 221 215 213 217 209 207 211 210 214 224 228 230 231 228 226 225 220 219 217 217 218 217 216 217 211 226 261 271 263 250 243 242 239 233 225 218 219 222 225 227 227 227 224 217 216 218 215 220 222 222 241 232 245 255 106 110 111 100 74 54 36 25 21 18 17 17 19 17 13 12 12 15 16
232 233 232 229 223 218 215 213 212 214 214 214 223 226 218 219 217 213 214 212 215 223 229 233 235 233 229 226 223 221 217 216 218 218 216 218 216 213 227 255 268 263 254 246 243 238 231 223 221 223 224 227 228 228 226 218 214 217 217 219 218 218 231 233 235 168 132 134 129 109 70 43 26 20 15 14 17 17 18 15 12 13 15 17 18
233 235 235 231 229 228 222 222 227 221 212 213 221 226 225 223 222 222 222 220 221 226 233 238 239 235 230 226 224 222 220 217 216 218 219 219 219 219 217 214 234 264 268 258 251 246 239 232 227 226 226 226 229 231 228 221 216 217 219 216 214 218 223 227 219 169 150 154 150 119 68 31 17 15 10 11 16 17 16 14 13 15 18 19 19
231 233 236 232 232 237 234 227 232 227 214 218 223 222 228 228 226 227 225 223 225 226 233 241 242 237 231 227 224 221 222 221 217 217 220 223 222 222 223 217 213 229 249 255 261 259 246 239 236 233 231 229 231 233 231 225 218 216 217 214 212 214 215 219 201 169 165 170 169 147 66 18 11 10 8 11 14 17 15 12 15 19 20 20 20
231 234 236 233 233 236 239 236 232 227 219 221 225 226 227 227 230 235 232 227 228 230 233 235 241 241 234 229 225 221 221 222 221 219 219 223 226 224 223 224 221 221 222 224 245 262 255 244 241 240 238 235 234 234 233 228 220 214 212 210 210 209 208 212 196 180 184 185 184 181 70 359 6 8 7 12 14 15 13 14 19 21 21 21 21
229 235 234 233 235 231 232 238 235 232 228 223 227 233 233 230 230 236 237 230 229 235 237 235 240 243 238 232 227 221 219 220 221 222 222 223 225 227 227 227 228 228 229 223 217 239 256 249 242 242 241 240 239 238 235 231 225 215 207 205 207 206 203 205 200 196 200 195 194 198 243 340 360 7 9 14 15 14 13 17 22 23 23 22 21
228 235 235 230 234 230 228 236 236 234 234 231 231 234 235 233 230 234 242 237 233 237 235 235 242 243 241 236 227 223 221 217 218 222 225 226 225 227 229 230 233 232 233 234 221 220 244 250 243 241 240 239 240 241 240 237 233 221 206 204 207 207 200 198 206 210 209 202 198 203 250 331 356 6 12 17 15 13 15 21 25 25 25 23 22
235 237 240 235 233 231 228 233 239 240 240 239 238 237 235 236 235 237 243 241 239 242 237 232 238 243 245 241 230 225 223 219 216 219 224 227 227 228 230 230 233 234 232 234 229 219 228 244 246 242 241 240 240 244 246 243 240 229 213 209 209 209 200 198 212 219 210 203 201 207 253 323 354 5 15 20 16 15 19 23 26 26 26 25 24
245 241 241 241 242 239 234 234 239 241 239 238 238 238 236 237 238 241 243 242 241 243 240 233 234 240 243 239 235 230 226 224 220 219 223 227 228 228 231 232 231 235 234 231 231 225 219 231 239 237 240 244 243 243 246 247 242 231 221 216 211 208 199 200 215 220 211 202 201 210 248 314 354 9 19 23 19 19 21 25 27 26 27 26 26
246 245 243 243 246 247 245 243 243 243 243 242 242 241 239 238 239 242 245 246 243 240 238 238 236 237 238 234 237 236 229 229 228 224 222 224 226 227 230 233 232 233 235 231 230 228 222 223 227 228 230 238 245 245 242 245 243 234 225 218 212 209 199 202 214 217 213 203 199 214 240 298 356 14 24 26 22 22 24 26 27 26 26 27 28
238 246 253 251 249 248 248 250 253 255 255 252 251 248 245 243 242 243 245 246 246 241 238 237 233 233 235 233 233 235 230 229 230 227 224 223 224 225 227 230 231 230 231 231 230 227 224 223 224 225 223 223 237 248 247 246 244 237 227 218 214 212 202 202 212 212 211 205 200 214 231 271 357 18 26 29 26 24 26 26 27 26 26 27 29
239 240 248 255 256 253 249 249 254 258 260 257 255 253 250 248 246 244 244 244 243 238 234 234 231 227 230 235 234 234 235 232 229 229 227 225 224 225 227 227 229 230 228 228 230 230 226 223 224 225 225 219 216 234 249 251 244 231 221 219 214 212 205 203 210 209 207 207 204 213 224 238 341 18 27 30 29 27 27 27 26 25 24 26 30
248 243 240 245 251 255 254 251 248 248 256 261 259 258 255 252 249 246 246 245 240 236 236 236 233 226 224 231 234 235 243 241 228 226 227 226 227 227 227 227 226 226 228 227 228 232 230 225 223 221 224 223 214 215 221 230 240 231 214 214 214 211 207 207 211 208 206 208 206 214 224 225 285 8 26 29 30 29 27 26 24 22 21 24 28
251 250 249 248 246 250 253 255 252 247 252 259 262 262 259 254 251 248 246 245 241 240 241 241 237 232 227 225 225 230 249 261 244 234 228 223 226 227 226 228 227 226 226 228 228 229 229 226 225 222 221 223 221 220 216 220 236 239 223 215 214 211 208 211 215 207 203 209 208 215 224 224 256 346 21 26 28 28 27 24 21 19 16 16 21
271 267 265 262 260 257 255 256 256 250 246 248 253 257 259 258 255 252 249 245 243 240 240 242 241 238 232 225 223 227 243 266 264 254 237 217 217 224 227 224 225 227 226 226 228 228 228 226 226 227 223 224 229 230 226 226 235 240 237 228 218 212 210 215 218 209 203 208 211 216 224 229 248 324 10 21 26 25 24 22 19 16 13 10 11
283 279 274 275 273 266 263 263 260 256 252 250 252 255 256 258 258 256 252 248 246 243 240 242 243 239 232 226 224 224 231 252 262 259 257 243 223 218 223 224 222 225 227 228 229 227 228 227 225 228 225 225 230 230 225 224 232 240 241 232 219 213 213 218 219 210 205 207 211 216 224 230 244 299 353 14 21 20 21 20 17 13 10 7 5
290 280 274 274 272 271 272 272 269 263 259 256 255 254 253 253 253 253 250 248 248 247 244 243 240 235 229 225 223 221 224 240 254 255 258 265 257 228 212 213 217 222 226 228 230 227 228 229 226 225 226 225 224 225 226 223 228 237 238 229 218 213 214 218 218 210 207 209 211 216 224 230 242 278 335 6 12 15 18 16 14 11 7 5 3
325 311 297 287 276 272 271 268 269 268 264 261 254 249 248 247 246 247 248 247 245 246 244 240 236 233 229 225 224 223 223 231 244 251 251 255 266 259 228 214 216 220 223 226 227 227 226 229 229 223 222 224 221 223 226 221 219 227 231 225 217 214 215 217 215 209 208 211 213 216 224 229 239 270 317 354 4 9 13 12 8 6 4 1 358
339 337 326 316 303 288 280 270 265 266 267 267 261 255 251 248 246 243 244 245 245 247 246 243 240 235 231 228 228 228 225 225 231 240 247 246 254 261 256 247 234 220 224 230 229 228 226 226 230 226 219 218 218 218 218 212 209 216 224 222 215 214 216 217 216 208 206 212 214 216 224 229 237 264 303 338 353 1 7 7 3 1 360 355 352
328 329 321 319 317 310 302 289 273 265 262 265 268 266 259 255 251 245 241 242 245 248 249 247 243 238 233 230 230 230 228 229 232 235 243 247 250 254 258 260 248 230 227 230 227 227 227 226 228 227 219 213 213 212 206 205 206 211 219 220 214 215 216 217 217 209 206 211 214 216 224 230 238 259 294 325 338 352 1 1 359 355 352 350 346
303 309 310 313 316 316 313 304 288 274 262 256 256 262 264 261 257 251 244 239 240 246 247 246 244 241 238 235 232 230 231 234 238 238 239 244 250 253 256 257 253 249 237 222 216 219 226 228 227 226 221 211 209 205 198 203 209 212 217 218 214 215 217 216 215 210 207 210 212 216 224 231 238 253 283 315 326 343 355 355 352 347 344 344 341
302 305 309 311 311 310 308 305 298 285 274 261 251 252 258 257 255 254 249 243 241 243 245 245 244 243 240 238 235 234 234 236 239 241 242 246 249 250 255 258 256 256 250 227 210 210 223 227 224 223 220 211 208 202 196 205 213 212 215 217 215 215 217 215 213 211 209 211 214 217 223 231 237 243 272 306 316 330 343 344 344 341 337 339 336
301 302 305 306 306 306 304 303 300 291 280 271 260 254 254 252 250 251 251 247 244 243 243 244 244 242 238 237 239 239 239 240 241 243 243 246 248 246 250 260 262 260 257 239 213 207 217 225 223 219 217 211 204 197 198 208 216 215 215 218 216 215 215 214 212 211 210 213 216 219 224 229 233 243 270 297 308 317 326 332 334 332 332 335 332
297 298 300 302 303 304 303 301 298 291 280 271 265 260 257 254 251 251 251 249 247 245 244 244 245 246 242 239 239 241 242 242 241 243 243 244 244 244 245 250 258 264 264 249 228 218 212 212 219 218 213 209 203 201 208 215 217 215 216 219 217 214 212 210 210 209 211 215 217 219 225 229 232 250 272 286 299 309 314 320 324 323 327 332 329
296 298 298 300 301 299 298 295 292 287 278 267 262 261 259 255 252 253 253 251 251 250 247 246 246 248 247 244 243 242 242 242 242 243 244 244 243 245 246 246 248 254 263 258 242 233 218 206 211 214 207 206 206 208 217 222 220 218 217 218 217 214 209 206 207 208 211 216 219 220 226 230 234 253 270 280 294 303 305 310 315 316 322 328 327
297 298 298 299 298 295 293 292 290 286 279 267 258 255 254 252 249 247 249 250 252 252 250 249 247 246 246 245 245 244 242 242 243 244 244 243 243 245 245 246 245 245 252 262 257 245 231 214 209 204 202 211 214 212 219 225 223 222 220 216 214 212 207 203 206 209 211 216 221 223 227 231 237 253 268 278 289 296 298 303 309 312 319 325 326
299 300 301 299 294 287 284 284 284 281 277 269 260 254 251 250 250 248 246 246 250 251 250 250 249 248 246 244 244 245 244 243 242 242 243 242 243 245 245 244 244 243 245 255 263 257 244 229 214 201 204 218 222 219 224 227 225 223 220 213 209 207 203 203 206 210 214 218 222 225 228 233 237 248 263 274 284 291 294 299 304 308 315 322 322
301 302 302 297 288 278 274 275 273 271 271 268 265 262 256 251 251 252 249 246 248 250 250 250 249 248 247 246 245 245 245 245 242 240 241 242 242 244 246 245 243 243 242 245 254 256 252 244 222 207 204 209 215 221 226 227 224 222 217 211 206 203 201 205 208 212 217 219 222 226 229 234 237 243 258 271 279 286 289 293 298 304 312 318 317
301 300 300 296 285 274 269 269 269 268 266 264 264 264 262 256 251 250 249 247 247 249 249 249 248 248 247 247 247 245 245 246 244 241 240 241 243 242 244 245 242 240 238 241 247 250 252 253 228 211 203 198 204 214 218 220 217 211 210 208 205 205 206 209 212 215 217 218 221 225 228 231 234 238 253 267 275 280 283 288 296 303 310 314 312
295 290 291 291 284 276 271 269 268 268 266 264 262 260 260 259 255 252 249 247 247 249 250 248 247 248 247 247 247 244 243 245 244 243 240 240 244 243 241 243 243 241 238 239 241 240 245 252 231 209 202 199 204 204 204 214 213 205 206 206 203 207 212 215 218 217 216 217 220 223 226 229 232 237 249 265 273 277 279 285 294 300 305 309 308
282 277 279 281 279 275 273 271 269 268 266 264 263 261 259 258 257 257 255 251 248 248 250 250 248 247 247 247 247 244 241 241 242 243 244 242 242 242 239 240 243 243 240 238 237 234 238 245 234 209 203 205 210 210 207 209 205 203 207 205 202 208 214 218 222 219 217 218 221 224 226 228 231 237 248 263 271 274 276 282 292 297 301 304 302
275 274 275 274 273 272 272 271 270 268 267 264 263 261 260 258 257 256 257 256 252 249 249 251 250 249 248 247 247 246 243 241 241 242 244 242 240 238 235 237 242 243 241 238 237 236 236 238 233 214 208 211 211 209 209 204 197 205 212 209 208 213 215 219 223 221 219 220 222 224 227 229 232 236 245 257 265 269 274 281 289 294 298 299 298
274 274 274 272 271 271 270 271 271 270 269 267 264 262 259 259 258 256 255 255 255 252 249 249 250 250 250 248 246 246 244 243 242 241 241 242 240 239 237 237 239 241 240 236 236 238 236 233 228 216 210 208 198 196 207 208 202 205 211 212 214 216 216 218 221 220 219 220 221 223 225 228 232 236 244 255 261 267 273 281 288 292 294 296 295
275 275 274 273 272 270 270 271 270 270 269 267 265 263 260 258 257 257 256 255 255 254 250 247 248 249 250 249 246 245 244 243 241 240 241 242 242 242 240 236 234 236 238 236 234 235 232 230 228 217 203 196 188 189 201 210 211 208 207 207 210 214 216 219 221 220 219 221 222 224 225 227 231 237 246 254 260 266 273 280 286 289 291 293 293
276 275 274 273 271 271 271 270 270 269 268 267 265 263 261 258 256 255 256 255 254 255 253 249 246 246 248 249 247 245 243 243 242 240 240 241 241 243 241 238 236 236 235 232 231 230 227 228 228 217 204 195 190 192 197 206 213 213 212 211 209 212 218 222 224 222 221 221 223 225 227 229 233 239 245 252 258 265 272 279 282 285 289 291 291
276 275 275 274 272 271 270 269 269 268 267 266 265 263 261 259 258 255 254 254 253 253 254 253 249 245 245 246 246 245 244 243 242 241 240 239 240 242 241 238 236 235 231 227 230 229 225 225 224 214 204 194 192 198 196 195 201 206 213 218 218 218 220 223 224 224 225 225 225 227 230 232 234 238 244 251 257 263 272 278 279 283 289 289 287
278 277 276 274 273 272 271 269 269 267 266 265 262 260 259 259 259 258 257 255 254 253 253 255 254 250 246 246 246 244 243 243 242 240 239 239 239 240 240 238 235 234 231 227 228 230 227 225 223 213 200 192 192 198 196 197 204 207 210 215 218 219 222 221 221 223 226 227 228 231 234 236 237 240 246 252 257 262 270 276 278 283 287 284 283
280 279 277 275 273 272 271 270 268 266 265 264 260 256 253 253 255 258 258 258 256 255 253 253 254 253 249 247 247 245 243 242 242 240 238 237 238 239 240 240 238 238 236 229 229 234 230 224 222 212 200 195 196 199 202 208 212 210 208 210 213 215 218 218 219 221 224 227 229 231 234 236 238 240 245 250 255 260 268 274 276 281 283 280 280
282 280 278 276 274 272 271 270 268 266 264 263 261 257 252 250 251 254 258 259 258 257 254 252 252 253 252 249 248 248 246 243 242 241 239 237 236 238 240 240 240 241 239 230 228 233 229 221 219 211 200 197 198 203 208 212 212 210 211 212 213 215 218 221 222 223 226 228 228 230 234 236 237 240 244 250 255 258 264 270 273 278 281 280 279
284 283 281 279 276 275 273 271 269 267 266 263 262 261 258 253 251 251 253 256 258 258 256 254 252 252 252 250 248 247 247 245 244 243 243 240 236 236 238 240 240 240 237 229 227 233 231 224 219 211 201 198 201 206 211 212 212 212 210 211 215 220 225 227 227 229 231 230 227 228 233 235 235 238 242 249 257 260 262 269 278 288 285 281 278
287 286 284 281 279 277 274 273 271 268 267 266 263 262 261 259 257 254 253 253 254 255 256 255 253 251 250 249 248 245 244 245 244 243 244 243 240 238 237 238 239 240 239 234 233 237 234 226 220 211 203 202 205 212 217 217 216 213 208 210 217 223 226 227 228 232 234 230 226 225 228 233 233 235 239 244 254 263 265 269 281 290 284 280 280
289 289 288 285 282 280 276 275 273 271 269 267 263 261 259 258 257 257 257 255 254 254 254 253 253 251 248 246 246 245 243 244 244 242 241 242 243 242 240 239 238 239 239 237 234 235 234 228 219 209 205 209 215 221 224 222 217 216 215 217 219 221 223 224 227 232 234 230 226 221 224 232 232 230 233 233 240 255 262 266 277 284 281 280 280
291 290 291 288 285 282 280 278 277 274 271 267 263 260 258 256 255 254 255 255 254 254 253 252 251 250 248 245 244 243 242 240 239 240 240 240 240 242 244 243 240 239 239 237 233 233 235 233 223 209 205 215 223 226 226 222 218 220 223 223 221 222 224 222 223 229 231 228 226 221 222 231 232 227 226 222 228 247 257 264 274 277 274 276 278
293 291 292 290 287 285 283 280 279 277 275 271 266 263 261 260 260 258 256 255 255 254 253 251 250 249 248 246 243 241 238 233 229 233 238 239 239 239 242 245 244 243 241 240 236 235 238 239 233 222 215 219 224 224 221 218 217 220 221 219 219 223 224 219 219 224 226 225 225 221 219 227 231 225 216 213 223 242 256 265 270 270 269 271 273
295 294 294 292 289 287 285 283 281 279 277 274 269 266 263 262 263 261 259 258 257 256 254 252 250 248 247 245 243 242 240 232 225 224 230 236 239 239 239 241 244 244 243 242 239 237 238 241 239 231 222 220 222 223 220 219 221 224 223 219 219 222 223 220 219 223 226 226 225 218 210 220 230 218 200 210 224 240 259 268 267 265 267 269 270
297 297 296 294 291 289 287 285 282 280 279 276 272 269 266 263 261 260 259 259 258 257 255 253 250 248 247 246 243 241 240 234 227 222 222 230 237 238 238 239 240 240 238 237 237 235 234 236 235 227 218 217 221 223 222 225 230 233 231 229 228 228 227 225 222 220 221 224 226 215 201 211 225 208 189 210 227 237 255 269 273 271 266 269 273
299 299 297 295 294 291 290 288 285 283 281 279 276 274 271 268 266 263 262 261 259 257 255 253 251 248 247 246 245 243 240 234 228 222 220 225 234 238 238 238 239 238 235 234 235 232 230 230 227 218 211 214 217 218 221 227 231 232 234 235 237 235 231 227 224 220 218 220 222 213 201 209 220 205 190 209 226 231 240 257 273 279 273 270 273